Flag for Canada Weather past 2 weeks in Kugluktuk, Nunavut Territory, Canada

Now
-6 °F

Snow flurries. More clouds than sun.


Feels Like: -24 °F
Forecast: -5 / -1 °F
Wind: 12 mph from East

Location: Coppermine

Current Time: Dec 20, 2014 at 4:16:28 PM

Latest Report: Dec 20, 2014 at 3:00 PM


Visibility: 12 mi

Pressure: 29.85 "Hg

Humidity: 77%

Dew point: -11 °F

Location of KugluktukLocation

Historic Weather in Kugluktuk — Graph

°F

Kugluktuk temperature yesterday

Maximum temperature yesterday: 5 °F (at 12:00 AM)
Minimum temperature yesterday: -4 °F (at 7:00 PM)
Average temperature yesterday: 0 °F

Past Weeks' High & Low Weather Summary

 TemperatureHumidityPressure
High16 °F (Dec 15, 11:00 AM)92% (Dec 16, 3:52 PM)30.55 "Hg (Dec 16, 3:52 PM)
Low-33 °F (Dec 10, 11:00 PM)61% (Dec 7, 8:00 PM)29.52 "Hg (Dec 15, 2:00 PM)
Average-7 °F79%29.99 "Hg
* Reported Dec 5 2:00 PM — Dec 20 2:00 PM, Kugluktuk, Weather by CustomWeather, © 2014

Note: Actual official high and low records may vary slightly from our data, if they occured in-between our weather recording intervals... More about our weather records

Advertising

Kugluktuk weather history for previous 24 hours

 ConditionsComfort  
Time TempWeatherWind HumidityBarometerVisibility
2:00 PM
Dec 20
-6 °FSnow flurries. Mostly cloudy.10 mph77%29.85 "Hg12 mi
1:00 PM-6 °FSnow flurries. Overcast.9 mph84%29.85 "Hg12 mi
12:00 PM-4 °FSnow flurries. Overcast.10 mph77%29.84 "Hg12 mi
11:00 AM-6 °FSnow flurries. Overcast.8 mph84%29.84 "Hg12 mi
10:00 AM-6 °FLight snow. Overcast.9 mph84%29.85 "Hg12 mi
9:00 AM-4 °FLight snow. Overcast.9 mph71%29.85 "Hg8 mi
8:00 AM-4 °FLight snow. Overcast.10 mph77%29.85 "Hg8 mi
7:00 AM-2 °FLight snow. More clouds than sun.10 mph77%29.85 "Hg8 mi
6:00 AM-4 °FLight snow. Overcast.8 mph84%29.86 "Hg8 mi
5:00 AM-4 °FLight snow. Overcast.7 mph84%29.87 "Hg8 mi
4:00 AM-4 °FLight snow. Mostly cloudy.8 mph77%29.88 "Hg8 mi
3:00 AM-4 °FLight snow. Mostly cloudy.8 mph77%29.88 "Hg8 mi
2:00 AM-2 °FLight snow. Mostly cloudy.8 mph71%29.89 "Hg8 mi
1:00 AM-2 °FLight snow. Mostly cloudy.7 mph77%29.89 "Hg8 mi
12:00 AM-4 °FLight snow. Mostly cloudy.8 mph77%29.87 "Hg8 mi
11:00 PM
Dec 19
-4 °FLight snow. Mostly cloudy.7 mph77%29.87 "Hg10 mi
10:00 PM-4 °FLight snow. Overcast.7 mph71%29.87 "Hg10 mi
9:00 PM-4 °FLight snow. Overcast.9 mph71%29.87 "Hg10 mi
8:00 PM-4 °FSnow. Overcast.8 mph77%29.86 "Hg8 mi
7:00 PM-4 °FLight snow. Overcast.8 mph77%29.86 "Hg8 mi
6:00 PM-2 °FLight snow. Overcast.8 mph71%29.86 "Hg8 mi
5:00 PM-2 °FLight snow. Overcast.8 mph77%29.85 "Hg8 mi
4:00 PM0 °FLight snow. Mostly cloudy.6 mph71%29.85 "Hg8 mi
Weather by CustomWeather, © 2014

See weather overviewHow to use our weather pages